Regional Weather Roundup
Issued by NWS State College, PA

Home | Current Version | Previous Version | Graphics & Text | Print | Product List | Glossary Off
Versions: 1 2 3 4 5 6 7 8 9 10 11 12 13 14 15 16 17 18 19 20 21 22 23 24 25 26 27 28 29 30 31 32 33 34 35 36 37 38 39 40 41 42 43 44 45 46 47 48 49 50

000
ASUS41 KCTP 222303
RWRCTP

REGIONAL WEATHER ROUNDUP
NATIONAL WEATHER SERVICE STATE COLLEGE PA
700 PM EDT WED OCT 22 2014

Note: "fair" indicates few or no clouds below 12,000 feet with no
significant weather and/or obstructions to visibility.

* = STATION THAT DOES NOT REPORT PRECIPITATION /E.G. RAIN...SNOW...ETC/
    THUNDER OR FOG.

PAZ002>004-007>009-013>016-020>023-029>032-230000-
WESTERN PENNSYLVANIA

CITY           SKY/WX    TMP DP  RH WIND       PRES   REMARKS
ERIE           MOCLDY    47  40  76 NE3       30.22S
MEADVILLE      CLOUDY    45  39  79 N9        30.20S
FRANKLIN*      CLOUDY    45  37  76 N7G16     30.20R
NEW CASTLE       N/A     47  42  82 NW10G17   30.21S
BEAVER COUNTY  CLOUDY    46  41  81 N9        30.19R
BUTLER*        CLOUDY    46  37  71 NW7       30.19S
PITTSBURGH INT CLOUDY    48  41  76 N14       30.18R
PITTSBURGH     CLOUDY    48  39  71 N13G22    30.15S
INDIANA*       CLOUDY    46  41  81 N7        30.17S
LATROBE        CLOUDY   N/A N/A N/A N6        30.14S
WASHINGTON CO* CLOUDY    48  39  71 N7        30.19R
$$

PAZ004>006-010>012-017>019-024>028-033>037-041-042-045-046-049>053-230000-
CENTRAL PENNSYLVANIA

CITY           SKY/WX    TMP DP  RH WIND       PRES   REMARKS
BRADFORD       CLOUDY    41  38  89 N15       30.14S
DUBOIS         CLOUDY    44  40  85 N18G26    30.12S
CLEARFIELD     CLOUDY    46  40  79 N12G20    30.11R
JOHNSTOWN      CLOUDY    43  39  86 N14G22    30.09S
ALTOONA        CLOUDY    48  41  76 NW9G18    30.07R
STATE COLLEGE  NOT AVBL
WILLIAMSPORT   CLOUDY    51  41  68 NW10G23   30.04S
SELINSGROVE    CLOUDY    52  43  71 N14G24    30.02S
FT INDIANTOWN  CLOUDY    53  48  85 N12G25    29.95R
CAPITAL CITY   CLOUDY    54  43  66 N12G29    29.98R
HARRISBURG     CLOUDY    53  43  68 N16G30    29.97R
YORK           CLOUDY    54  44  69 N14       29.96R
$$

PAZ038>040-043-044-047-048-054-055-060>062-067>071-230000-
EASTERN PENNSYLVANIA

CITY           SKY/WX    TMP DP  RH WIND       PRES   REMARKS
SCRANTON       LGT RAIN  52  45  77 N14G22    29.96S
MOUNT POCONO   LGT RAIN  48  44  86 N15G25    29.90F
ALLENTOWN      LGT RAIN  55  46  71 N13G23    29.89S
QUAKERTOWN*    CLOUDY    54  46  76 N12G20    29.88F
READING        CLOUDY    55  46  71 N18G30    29.91S
LANCASTER      CLOUDY    53  45  74 NW9G23    29.93R
COATESVILLE    LGT RAIN  54  48  82 N12G22    29.89S
POTTSTOWN      LGT RAIN  53  48  83 NW12      29.89S
BLUE BELL      CLOUDY    54  50  87 N6        29.85S
DOYLESTOWN     LGT RAIN  51  49  92 N9G20     29.85S
WILLOW GROVE   NOT AVBL
NORTH PHILA    LGT RAIN  55  48  77 N17       29.85S
PHILADELPHIA   RAIN      55  50  83 N16G32    29.85S
$$



USA.gov is the U.S. government's official web portal to all federal, state and local government web resources and services.